Regional Weather Roundup
Issued by NWS

Home | Current Version | Previous Version | Text Only | Print | Product List | Glossary Off
Versions: 1 2 3 4 5 6 7 8 9 10 11 12 13 14 15 16 17 18 19 20 21 22 23 24 25 26 27 28 29 30 31 32 33 34 35 36 37 38 39 40 41 42 43 44 45 46 47 48 49 50

000
ASUS43 KIND 292159
RWRIN

WEATHER ROUNDUP FOR INDIANA
NATIONAL WEATHER SERVICE INDIANAPOLIS IN
600 PM EDT SAT AUG 29 2015

NOTE: "FAIR" INDICATES FEW OR NO CLOUDS BELOW 12,000 FEET WITH NO
SIGNIFICANT WEATHER AND/OR OBSTRUCTIONS TO VISIBILITY.

* - STATION DOES NOT REPORT WEATHER SUCH AS PRECIPITATION OR FOG.

+ - STATION NOT QUALITY CONTROLLED BY THE NATIONAL WEATHER SERVICE.
    USE DATA WITH CAUTION...ESPECIALLY DEWPOINT AND RELATIVE
    HUMIDITY OBSERVATIONS.

INZ001>003-010>013-019-020-292300-
NORTHWEST INDIANA

CITY           SKY/WX    TMP DP  RH WIND       PRES   REMARKS
GARY /AIRPORT/ CLOUDY    77  66  69 SW7       30.00S
MONTICELLO +   CLOUDY    77  70  78 S3        30.00F

$$

LMZ046-743>745-292300-
SOUTHERN LAKE MICHIGAN

STATION/POSITION TIME  TEMP    WIND        PRES    WAVE
                       AIR SEA DIR/SP/G            HT
                 (UTC) (F)     (DEG/KT/KT) (MB)    (FT)
BURNS HARBOR     2100   74     180/  8/ 13 1016.3F
MICHIGAN CITY    2100   71     120/  5/  7   N/A
5NW MICH CITY    2100   72 71  150/  8/ 10   N/A     1

$$

INZ004-005-014>016-021>024-292300-
NORTH CENTRAL INDIANA

CITY           SKY/WX    TMP DP  RH WIND       PRES   REMARKS
ELKHART        CLOUDY    68  68 100 SE5       30.03F FOG
GOSHEN         LGT RAIN  71  69  93 CALM      30.04F FOG
SOUTH BEND     LGT RAIN  69  67  93 E6        30.03F FOG

$$

INZ006>009-017-018-025>027-292300-
NORTHEAST INDIANA

CITY           SKY/WX    TMP DP  RH WIND       PRES   REMARKS
ANGOLA *+      MOSUNNY   70  63  78 E3        30.06S
FORT WAYNE     CLOUDY    76  70  82 CALM      30.04F

$$

INZ028-029-035-036-043>045-051>053-292300-
WEST CENTRAL INDIANA

CITY           SKY/WX    TMP DP  RH WIND       PRES   REMARKS
CRAWFORDSVL +  CLOUDY    76  66  71 S5        30.02F
GREENCASTLE +  CLOUDY    77  64  65 S3        30.04F
LAFAYETTE      CLOUDY    76  69  79 S6        30.00F
TERRE HAUTE    CLOUDY    81  67  62 S9        30.02F

$$

INZ030>032-037>040-046>048-054>057-064-065-292300-
CENTRAL INDIANA

CITY           SKY/WX    TMP DP  RH WIND       PRES   REMARKS
GREENWOOD *+   CLOUDY    81  64  57 S9        30.05F
INDIANAPOLIS   PTSUNNY   80  67  64 S8        30.02F
-EAGLE CREEK   PTSUNNY   81  66  60 S9        30.02F
KOKOMO *+      CLOUDY    79  66  65 S7        30.02F
MT COMFORT *+  CLOUDY    81  61  50 SW6       30.04F
SHELBYVILLE    CLOUDY    82  68  62 W3        30.04F

$$

INZ033-034-041-042-049-050-058-059-292300-
EAST CENTRAL INDIANA

CITY           SKY/WX    TMP DP  RH WIND       PRES   REMARKS
MUNCIE         PTSUNNY   77  66  68 VRB5      30.04F

$$

INZ060-061-067>069-081>083-085>088-292300-
SOUTHWEST INDIANA

CITY           SKY/WX    TMP DP  RH WIND       PRES   REMARKS
EVANSVILLE     PTSUNNY   84  68  58 CALM      30.02F
HUNTINGBURG *+ PTSUNNY   84  64  51 CALM      30.03S

$$

INZ062-063-066-070>080-084-089>092-292300-
SOUTH CENTRAL AND SOUTHEAST INDIANA

CITY           SKY/WX    TMP DP  RH WIND       PRES   REMARKS
BLOOMINGTON    CLOUDY    79  70  74 SW3       30.04F
MADISON *+     MOSUNNY   82  63  51 SW6       30.07F
SEYMOUR +      PTSUNNY   84  64  51 CALM      30.03S

$$



USA.gov is the U.S. government's official web portal to all federal, state and local government web resources and services.